Temp
11 12 12 12 12 12 13 13 13 13 13 13 13 13 13 13 13 14 14 14 15 15 15 15 15 16 16 16 16 17 16 16 16 16 16 16 16 16 16 16 15 15 15 14 14
12 12 12 12 12 12 13 13 13 13 13 13 13 13 13 13 13 14 14 15 15 15 15 15 15 15 16 16 16 16 16 16 16 16 16 15 16 15 16 16 15 15 16 15 15
11 12 12 12 12 12 13 13 13 13 13 13 13 13 13 13 14 14 15 15 15 15 15 15 15 15 15 16 16 16 16 16 16 16 16 16 16 16 16 16 16 16 16 15 15
11 12 12 12 12 12 13 13 13 13 13 13 13 13 13 13 14 14 15 15 15 15 15 15 15 15 15 16 16 17 17 17 16 16 17 16 16 17 17 17 16 16 17 16 16
12 12 12 12 12 12 13 13 13 13 13 13 13 13 13 13 14 14 15 15 15 15 15 15 15 15 16 16 17 17 17 17 17 17 17 17 17 17 17 17 17 17 17 17 16
12 12 12 12 12 13 13 13 13 13 13 13 13 13 13 13 13 14 15 15 15 14 14 14 15 15 16 17 17 17 18 17 17 17 18 17 17 17 18 17 17 18 17 17 16
12 12 12 12 12 13 13 13 13 13 13 13 14 13 13 13 13 14 14 14 14 14 14 15 15 16 16 17 17 17 18 18 18 18 18 18 18 18 18 18 18 18 18 17 17
12 12 12 13 13 13 13 13 13 13 14 14 14 14 13 13 13 14 14 14 14 14 15 15 16 16 17 17 18 18 18 18 18 18 18 18 19 18 18 18 18 18 18 18 17
12 12 12 12 13 13 13 13 13 13 14 14 14 14 14 13 14 13 14 14 14 14 14 15 16 16 17 17 18 17 17 18 19 18 18 18 19 19 18 18 18 18 18 18 18
12 12 12 12 12 13 13 13 13 13 14 14 14 14 14 14 14 14 14 14 14 15 15 15 16 16 16 16 16 17 17 17 18 18 18 19 19 19 19 19 19 19 18 18 18
12 12 12 12 12 12 12 13 14 14 14 14 15 15 14 14 14 14 14 14 14 15 15 15 16 17 16 16 17 17 18 18 19 19 20 19 19 19 19 19 20 20 19 19 18
12 12 13 13 12 12 12 13 13 14 14 14 15 15 15 15 14 14 15 14 15 15 15 16 16 16 16 17 17 18 18 18 19 19 19 19 19 19 19 20 20 20 19 19 18
12 13 13 13 12 12 12 13 13 13 14 15 15 15 15 15 15 15 15 15 15 15 15 15 16 16 16 17 17 18 18 19 19 19 19 19 19 19 20 20 20 19 19 19 19
12 13 13 13 13 13 12 12 12 12 13 16 16 16 15 15 15 15 15 15 15 16 15 16 16 16 16 17 17 18 18 18 18 19 19 19 18 19 19 20 20 20 20 20 20
12 12 13 13 13 13 12 12 12 12 10 15 16 16 15 15 15 15 16 15 16 16 15 16 16 16 17 17 17 17 18 18 18 18 19 19 19 19 19 20 20 20 20 20 20
12 12 12 13 13 13 12 11 11 12 12 15 15 16 16 15 15 16 16 16 16 15 15 16 16 16 17 17 17 17 18 18 18 18 17 18 18 19 19 19 20 20 20 21 21
12 12 12 12 13 13 12 11 11 12 14 15 15 16 16 16 15 16 16 15 15 15 15 17 17 17 17 18 18 17 18 18 16 14 15 18 18 19 19 19 19 20 21 21 21
12 12 12 12 12 12 12 12 11 14 14 14 15 15 15 16 16 15 15 15 15 15 15 16 17 17 18 18 18 18 18 17 14 12 16 18 18 19 19 19 19 20 20 20 21
12 12 12 12 12 12 12 11 13 14 14 14 15 16 15 15 15 15 15 15 15 15 15 16 16 18 17 17 17 18 18 18 17 16 14 17 19 19 19 19 19 20 20 20 20
11 12 12 12 12 12 11 12 13 14 14 14 14 15 16 16 15 16 16 16 16 16 16 16 16 17 17 17 17 17 17 18 18 14 13 15 17 18 19 19 19 19 19 20 19
11 11 11 11 11 11 11 12 13 13 13 14 14 15 15 15 16 16 16 16 16 17 17 16 16 17 16 17 18 17 17 17 17 17 12 11 16 17 17 18 18 18 18 18 18
10 10 11 11 11 11 12 12 12 12 12 13 14 14 15 15 15 15 16 16 16 16 17 17 16 16 17 17 17 17 16 17 17 16 16 15 16 17 16 16 17 17 17 16 17
9 10 10 10 10 10 10 10 10 11 12 13 13 14 14 15 15 15 15 15 15 16 16 16 16 16 17 17 17 17 17 17 17 17 17 15 16 16 15 15 16 16 16 16 16
9 9 9 9 9 9 9 9 10 10 12 12 13 13 14 14 15 15 15 15 16 16 16 16 16 16 16 17 17 16 16 16 16 16 17 17 17 15 15 15 16 16 15 15 15
9 8 9 8 8 8 8 9 9 10 11 12 12 12 13 14 14 14 15 15 15 15 15 15 16 16 16 16 16 16 16 16 16 16 16 16 16 15 14 15 15 15 15 14 15
8 8 8 8 8 8 8 9 9 9 10 11 12 13 12 13 14 14 14 14 14 15 14 15 15 15 15 15 16 16 16 15 15 16 16 16 15 15 14 14 15 15 14 14 14
7 7 7 7 7 8 8 8 9 9 10 11 12 12 13 13 14 14 14 14 13 14 14 14 14 14 14 14 14 14 15 15 15 16 15 15 15 15 15 15 14 14 14 14 14
Height
3177 3177 3177 3177 3176 3176 3176 3176 3175 3175 3175 3174 3174 3173 3173 3173 3172 3173 3174 3176 3178 3180 3181 3181 3181 3183 3183 3184 3184 3184 3186 3184 3184 3184 3183 3183 3182 3183 3184 3182 3181 3179 3178 3179 3179
3175 3175 3175 3175 3175 3176 3176 3176 3175 3175 3174 3174 3174 3173 3173 3172 3172 3173 3174 3176 3179 3180 3180 3181 3182 3183 3183 3184 3185 3185 3186 3186 3185 3185 3185 3184 3184 3184 3185 3183 3181 3180 3178 3179 3180
3174 3174 3174 3174 3174 3174 3175 3175 3174 3174 3174 3174 3173 3173 3172 3172 3172 3173 3174 3176 3179 3180 3181 3182 3183 3184 3185 3185 3186 3186 3187 3187 3186 3185 3184 3185 3184 3186 3186 3185 3183 3180 3180 3179 3180
3172 3172 3172 3172 3172 3173 3173 3173 3173 3173 3173 3173 3173 3172 3172 3172 3174 3172 3173 3177 3179 3180 3182 3183 3184 3185 3186 3186 3186 3188 3187 3186 3186 3185 3185 3185 3185 3186 3187 3187 3185 3183 3181 3180 3181
3170 3170 3170 3170 3170 3171 3171 3172 3172 3173 3172 3172 3172 3172 3172 3172 3171 3171 3174 3177 3179 3180 3183 3183 3184 3185 3186 3187 3187 3188 3188 3186 3186 3186 3186 3186 3186 3187 3187 3189 3188 3186 3184 3182 3182
3168 3168 3168 3168 3168 3169 3169 3170 3171 3171 3171 3171 3171 3171 3171 3172 3170 3172 3174 3177 3179 3181 3183 3184 3184 3185 3186 3187 3188 3187 3187 3186 3186 3187 3187 3186 3186 3188 3188 3189 3189 3188 3187 3185 3185
3165 3165 3165 3165 3166 3166 3167 3168 3169 3169 3169 3170 3170 3170 3171 3172 3171 3172 3175 3177 3180 3181 3183 3184 3185 3186 3186 3187 3187 3186 3187 3187 3187 3186 3187 3187 3187 3185 3187 3188 3190 3190 3190 3189 3188
3163 3162 3162 3162 3163 3163 3164 3165 3166 3167 3168 3168 3169 3169 3170 3171 3172 3173 3175 3178 3180 3181 3183 3183 3184 3185 3186 3187 3186 3185 3186 3185 3186 3186 3187 3188 3186 3185 3185 3187 3190 3191 3191 3191 3190
3160 3160 3160 3160 3160 3160 3161 3162 3163 3164 3165 3166 3168 3168 3170 3171 3173 3174 3176 3178 3180 3180 3180 3182 3184 3185 3186 3185 3186 3185 3184 3184 3184 3185 3185 3187 3185 3185 3185 3185 3186 3189 3190 3191 3191
3157 3157 3157 3157 3157 3157 3158 3158 3159 3161 3162 3163 3165 3168 3168 3170 3171 3173 3175 3177 3179 3180 3181 3182 3183 3184 3186 3186 3186 3185 3184 3183 3183 3184 3183 3184 3184 3184 3185 3185 3185 3185 3186 3188 3190
3154 3154 3154 3155 3154 3155 3155 3155 3158 3159 3158 3160 3161 3164 3164 3167 3169 3172 3173 3175 3177 3179 3180 3180 3182 3183 3185 3185 3186 3185 3184 3182 3182 3180 3181 3183 3183 3184 3184 3183 3182 3182 3183 3185 3187
3151 3152 3151 3152 3152 3152 3153 3153 3153 3155 3155 3155 3158 3160 3163 3166 3168 3170 3172 3175 3175 3178 3179 3182 3181 3184 3184 3185 3185 3183 3183 3183 3182 3181 3182 3182 3183 3183 3182 3181 3179 3179 3179 3181 3185
3148 3149 3149 3150 3150 3151 3151 3151 3151 3152 3151 3151 3152 3156 3160 3164 3165 3168 3171 3173 3175 3177 3179 3180 3182 3182 3184 3184 3184 3182 3182 3182 3183 3183 3182 3181 3181 3181 3180 3179 3177 3176 3176 3176 3178
3145 3146 3146 3147 3150 3148 3149 3150 3150 3151 3149 3147 3148 3153 3156 3160 3163 3166 3169 3173 3173 3175 3177 3179 3181 3182 3182 3183 3182 3181 3182 3182 3181 3182 3180 3180 3178 3178 3177 3176 3175 3174 3173 3173 3174
3143 3143 3143 3144 3146 3147 3149 3148 3149 3150 3149 3145 3144 3147 3151 3157 3161 3163 3167 3169 3171 3174 3176 3177 3178 3179 3179 3180 3181 3180 3180 3180 3180 3180 3180 3179 3177 3175 3175 3174 3173 3172 3171 3171 3170
3139 3140 3140 3141 3143 3145 3146 3147 3149 3151 3145 3143 3143 3145 3150 3154 3158 3160 3163 3167 3169 3171 3171 3172 3173 3175 3176 3177 3178 3179 3179 3178 3178 3178 3178 3176 3177 3173 3172 3171 3168 3168 3167 3167 3166
3136 3137 3138 3138 3140 3142 3144 3147 3149 3145 3143 3144 3143 3144 3147 3151 3155 3157 3159 3161 3164 3167 3168 3169 3170 3172 3174 3175 3176 3178 3178 3177 3179 3180 3179 3176 3176 3173 3171 3169 3166 3165 3163 3163 3163
3133 3134 3135 3135 3137 3139 3142 3145 3144 3141 3140 3140 3140 3143 3145 3149 3153 3155 3155 3158 3160 3163 3165 3165 3167 3168 3169 3172 3174 3175 3176 3176 3180 3181 3175 3174 3171 3170 3169 3167 3166 3164 3161 3159 3159
3129 3130 3131 3132 3134 3136 3140 3140 3138 3139 3140 3139 3139 3141 3143 3147 3151 3153 3154 3154 3157 3160 3163 3162 3162 3164 3166 3167 3171 3170 3172 3173 3172 3172 3173 3168 3166 3167 3166 3165 3164 3162 3159 3158 3158
3125 3126 3127 3128 3130 3133 3135 3135 3136 3137 3138 3138 3138 3140 3142 3145 3148 3150 3151 3153 3154 3157 3160 3161 3161 3161 3164 3165 3167 3167 3170 3169 3170 3172 3173 3164 3163 3162 3162 3162 3160 3159 3158 3157 3155
3120 3121 3123 3124 3127 3129 3129 3131 3134 3135 3137 3138 3138 3139 3141 3143 3144 3147 3148 3152 3151 3152 3153 3157 3160 3157 3159 3161 3163 3165 3165 3165 3167 3167 3165 3167 3161 3159 3158 3158 3157 3156 3157 3156 3153
3116 3117 3118 3120 3124 3124 3125 3128 3131 3131 3133 3134 3136 3138 3140 3141 3143 3145 3145 3147 3148 3150 3150 3152 3154 3153 3154 3157 3158 3158 3160 3160 3161 3163 3161 3161 3159 3156 3157 3156 3154 3153 3154 3154 3153
3112 3113 3115 3117 3119 3120 3122 3123 3124 3127 3130 3132 3133 3135 3137 3139 3141 3142 3143 3145 3146 3147 3148 3149 3150 3151 3151 3152 3152 3153 3156 3156 3157 3157 3156 3157 3156 3155 3154 3154 3153 3153 3152 3152 3151
3109 3110 3112 3113 3115 3117 3119 3120 3122 3122 3124 3126 3129 3131 3133 3135 3137 3139 3141 3143 3144 3145 3146 3147 3148 3149 3149 3148 3148 3149 3151 3152 3153 3153 3152 3152 3151 3151 3151 3152 3152 3151 3150 3149 3147
3106 3106 3107 3108 3111 3114 3117 3118 3119 3119 3120 3121 3123 3127 3130 3132 3133 3135 3138 3140 3141 3142 3143 3145 3145 3146 3146 3146 3145 3146 3147 3147 3147 3148 3147 3147 3146 3146 3148 3148 3148 3148 3148 3148 3147
3103 3103 3104 3106 3108 3111 3113 3115 3116 3115 3116 3119 3121 3125 3125 3125 3129 3132 3134 3136 3137 3139 3139 3141 3142 3142 3142 3142 3142 3141 3141 3141 3142 3142 3141 3141 3141 3143 3144 3145 3146 3146 3146 3146 3145
3098 3099 3101 3103 3105 3108 3110 3112 3113 3113 3114 3115 3117 3119 3121 3122 3124 3127 3129 3130 3132 3133 3135 3137 3137 3137 3135 3137 3137 3136 3136 3136 3136 3136 3137 3136 3137 3139 3140 3141 3142 3142 3142 3141 3140
Wind_Speed
9 9 8 7 6 5 3 2 1 0 0 1 1 2 4 3 7 12 14 14 10 7 4 3 5 5 3 4 5 9 5 3 3 2 6 5 5 11 15 16 15 10 9 5 4
9 10 9 8 7 6 4 3 2 1 2 2 2 2 3 5 7 11 16 15 12 9 7 5 4 3 4 8 6 7 7 3 3 5 8 7 5 9 14 17 16 14 11 7 3
10 10 10 9 8 7 5 4 3 3 3 3 3 4 1 3 6 9 14 14 14 11 7 5 3 1 1 2 4 4 6 4 3 8 10 8 6 9 10 15 18 14 11 7 3
11 11 11 10 9 8 7 6 5 4 4 4 5 5 6 5 4 9 14 15 14 11 8 4 5 4 1 4 5 4 3 2 2 2 4 7 7 8 11 15 17 16 14 11 6
12 12 11 11 10 10 9 9 8 7 6 5 5 5 4 3 5 10 12 14 14 10 7 6 6 6 5 3 6 2 3 5 4 7 5 8 8 8 7 11 15 14 16 15 9
13 13 13 13 12 12 12 10 10 9 8 6 5 4 5 4 6 11 14 16 13 11 12 10 9 7 4 7 2 3 7 9 6 5 6 7 5 7 6 7 10 13 13 14 13
13 14 14 14 14 14 14 12 12 11 10 9 6 5 7 7 10 16 18 16 17 10 13 8 5 5 6 5 3 4 2 5 7 8 7 6 9 5 5 6 4 5 10 11 12
10 12 14 14 15 16 15 14 14 13 12 11 8 7 9 11 13 18 20 19 11 9 13 7 3 5 4 2 3 3 7 11 5 6 10 9 9 10 12 11 7 3 2 8 8
9 10 10 12 14 16 17 17 17 16 15 13 10 9 11 15 14 15 16 17 6 8 7 10 7 3 3 7 9 8 17 12 10 9 9 11 12 11 13 12 14 10 4 2 7
10 10 9 9 11 14 16 19 19 18 18 15 13 11 12 17 19 15 13 13 11 11 7 5 6 6 3 11 14 17 19 18 18 13 8 13 11 11 14 18 21 17 12 7 1
12 11 10 9 10 10 12 16 18 20 21 19 12 17 15 18 21 18 15 13 14 13 9 8 9 5 3 12 13 16 13 17 13 11 1 8 12 13 18 16 15 16 14 13 2
12 12 11 10 10 10 11 13 15 17 19 21 20 18 18 19 22 20 18 18 17 14 13 12 10 4 5 8 15 12 11 11 10 13 12 9 8 15 19 17 15 13 12 12 12
12 12 12 10 11 10 10 10 11 11 16 16 21 22 23 22 23 22 20 18 16 15 14 14 7 7 10 8 9 12 14 8 9 7 9 8 17 19 10 17 14 14 15 12 13
12 12 12 11 11 11 10 9 7 8 10 8 20 23 28 23 24 24 22 18 18 16 13 11 17 14 10 7 9 4 9 12 6 8 7 13 10 18 18 16 15 21 18 14 12
11 11 12 13 12 11 9 7 7 5 2 4 14 21 31 28 18 24 22 19 19 16 12 11 6 8 13 8 9 10 13 15 9 9 12 14 13 18 18 16 16 19 16 13 14
11 9 12 13 14 12 10 8 5 4 6 3 11 19 31 28 18 21 24 21 17 16 17 20 17 14 16 15 11 14 10 14 9 10 6 6 3 10 12 19 24 20 16 13 10
13 10 10 12 14 14 13 9 5 6 1 2 7 14 30 30 18 14 26 25 20 16 21 22 24 21 20 20 18 11 10 6 5 4 6 12 8 10 11 20 21 22 19 18 16
14 11 11 13 15 15 18 12 7 3 3 1 10 12 23 30 24 16 21 28 25 21 15 9 15 21 23 22 20 9 8 3 4 3 15 19 7 15 16 20 20 22 18 12 11
15 12 12 14 14 16 20 19 6 6 3 3 7 10 16 26 21 21 18 28 27 26 16 6 16 20 15 11 11 7 10 10 4 8 2 10 17 21 20 18 20 19 18 16 16
15 14 13 14 15 18 21 24 15 9 7 1 3 6 13 15 22 18 24 12 27 29 22 21 20 16 12 14 14 11 9 5 8 2 4 5 8 13 14 12 19 20 19 15 13
12 14 14 15 16 19 24 26 25 13 11 4 5 6 9 13 17 19 12 25 5 6 22 34 27 25 22 16 10 9 13 13 10 7 5 1 3 7 10 10 12 11 12 11 10
11 13 15 16 18 21 23 24 23 21 21 18 15 10 6 10 11 12 8 18 14 13 8 21 16 30 31 28 25 22 11 9 9 6 6 3 5 5 3 2 4 8 4 6 10
9 13 15 17 16 18 17 16 19 23 22 22 20 14 11 12 8 13 12 12 8 8 9 8 12 10 10 15 15 17 13 7 6 7 7 4 4 7 5 5 6 7 5 3 2
9 13 17 21 20 16 16 16 16 16 19 20 22 18 17 16 14 9 15 13 13 11 8 5 8 8 11 5 7 15 12 8 10 10 10 10 9 15 12 7 6 6 7 8 9
11 15 17 16 23 19 15 13 9 14 16 15 20 18 19 20 18 17 16 14 12 11 10 9 11 13 12 12 13 14 14 13 13 11 11 9 12 17 16 12 11 11 11 11 13
12 16 17 20 14 22 16 12 8 10 13 19 16 13 13 20 24 19 16 17 17 16 13 13 12 14 17 15 17 21 19 14 15 13 14 11 14 18 17 14 13 14 13 12 13
12 15 17 18 20 15 17 13 6 5 3 13 15 15 12 13 21 21 15 13 12 11 11 13 14 14 19 17 16 16 19 20 21 20 16 18 18 18 19 18 18 15 12 15 17
Wind_Direction
238 248 257 269 279 285 293 316 341 302 234 197 179 164 178 204 207 195 194 195 191 174 181 178 143 134 104 124 138 145 133 86 107 244 325 264 356 1 19 13 18 22 27 52 178
243 248 258 265 265 264 263 264 266 239 230 239 193 184 200 219 220 203 200 196 185 182 191 192 131 114 110 146 134 129 132 55 326 249 293 261 300 326 5 13 15 25 27 33 102
250 253 257 257 255 252 247 242 247 238 235 238 191 169 178 275 228 208 202 194 187 192 193 196 165 165 188 57 57 70 27 353 316 271 271 265 311 352 358 9 16 19 35 47 73
252 253 255 252 249 246 239 238 241 242 243 238 223 238 267 280 231 208 201 193 188 191 189 195 214 220 62 106 62 95 16 338 84 326 273 274 284 331 4 12 15 27 43 57 81
254 253 252 251 248 243 237 236 238 239 243 245 246 263 243 231 222 198 190 182 177 187 204 189 163 152 151 88 94 62 248 225 230 219 266 273 305 319 2 25 39 47 61 70 78
256 255 253 251 247 244 240 236 236 239 242 245 245 249 203 172 194 168 163 163 164 163 134 134 142 133 132 129 56 282 233 233 245 250 301 283 290 283 5 3 49 46 55 68 79
256 254 250 248 247 244 242 240 238 238 241 242 243 223 199 174 163 153 156 159 161 155 155 123 124 127 142 150 282 295 273 255 286 266 272 321 331 319 310 328 52 22 46 55 74
260 256 252 250 248 246 244 240 240 239 239 240 234 218 190 174 171 165 164 161 149 147 180 181 150 151 135 197 346 34 28 15 8 334 274 264 330 321 308 301 309 299 12 36 36
262 260 257 253 250 246 244 242 240 239 239 238 229 213 197 182 177 179 172 180 166 168 169 209 234 170 98 27 62 21 352 357 6 338 322 268 309 321 312 316 318 307 287 302 50
266 262 259 254 251 249 245 242 240 238 238 237 230 218 201 189 180 185 187 205 190 182 200 226 224 243 6 14 352 334 331 324 324 330 282 279 291 310 323 311 310 297 281 278 204
265 260 254 246 246 250 247 243 241 240 236 231 221 209 207 192 189 186 190 200 206 210 216 226 235 269 11 2 351 341 331 337 10 11 207 279 308 320 309 314 319 318 293 270 214
262 257 251 241 240 243 251 254 248 246 243 235 226 207 200 197 197 196 198 201 209 218 229 237 247 191 359 2 1 14 347 344 6 14 15 329 322 339 332 332 314 323 303 280 266
261 255 250 237 232 235 248 262 263 262 266 232 225 205 193 199 200 201 205 205 212 219 227 242 202 244 305 333 351 32 20 344 316 337 331 328 319 338 8 0 9 340 343 298 273
256 250 244 236 232 235 240 260 280 286 288 237 222 207 198 200 206 200 206 211 214 218 227 247 234 250 256 290 339 15 14 357 309 325 335 328 317 335 334 351 2 8 356 324 280
260 245 239 231 227 229 235 249 261 270 315 238 196 197 196 203 207 206 203 206 217 220 228 220 221 238 243 283 307 318 335 336 305 282 310 318 308 307 325 331 331 331 337 330 289
262 248 238 229 223 221 218 226 241 236 251 176 177 193 197 204 209 204 206 207 214 220 232 241 252 263 249 265 269 309 319 329 329 309 310 345 349 331 349 341 332 319 314 305 268
260 246 240 229 222 210 199 205 228 229 149 127 195 198 204 208 190 210 208 209 213 221 238 237 249 261 256 263 271 292 296 342 338 343 237 305 308 300 340 334 337 338 315 296 267
256 249 234 228 224 209 202 205 231 256 161 302 214 213 211 208 209 216 213 215 220 227 248 252 253 251 254 256 261 267 288 256 219 228 276 283 256 292 305 320 323 335 346 326 289
252 249 236 229 219 215 209 210 220 212 195 339 219 206 207 214 215 213 222 223 223 227 233 258 257 261 244 212 234 254 289 293 281 298 271 247 258 283 290 294 316 333 353 338 313
245 242 234 230 215 212 214 218 212 202 200 29 136 189 209 198 214 218 225 247 241 240 238 242 270 257 254 255 256 268 265 269 313 214 251 255 264 267 287 294 313 329 339 341 326
246 233 226 222 215 212 219 224 223 220 219 214 167 153 163 204 204 214 229 227 211 271 235 236 249 260 265 262 233 270 274 287 254 242 178 250 263 285 304 317 317 359 351 303 264
242 222 220 214 211 218 226 231 235 233 236 247 246 259 224 196 211 225 225 213 221 250 242 216 234 250 262 257 257 276 274 223 226 218 223 231 255 262 336 9 69 67 58 254 242
236 217 210 208 208 217 222 233 242 245 244 249 251 252 228 200 216 213 195 184 189 191 192 196 228 252 259 256 252 247 199 206 228 220 224 182 238 201 158 135 101 104 118 138 262
226 211 212 213 211 215 222 230 242 256 245 240 239 221 205 203 202 212 201 208 214 221 214 229 231 227 230 242 210 192 218 234 231 233 248 237 252 201 187 174 185 189 199 209 228
224 220 215 222 221 225 227 242 250 252 238 215 226 220 229 233 213 223 216 215 228 244 255 256 248 245 242 239 239 237 245 249 239 241 235 261 232 199 202 213 229 252 266 284 294
230 226 221 224 226 227 227 238 253 256 246 221 229 211 229 233 227 223 237 245 247 254 260 257 262 259 256 246 252 254 259 239 220 224 221 227 211 208 223 236 251 253 262 280 288
239 232 227 225 228 229 227 224 221 279 210 216 236 233 239 240 228 235 237 244 240 242 243 250 256 256 263 269 251 243 236 239 243 241 231 229 244 238 228 242 252 263 280 289 292